�N����,���ϋC��(��),�~���ʂ̍��v(mm),���Ǝ���(����)
2010/1/1,4.8,0,9.2
2010/1/2,6.3,0,9
2010/1/3,5.7,0,6.6
2010/1/4,6.5,0,5.2
2010/1/5,7.3,2.5,8.1
2010/1/6,6.5,0,7.3
2010/1/7,7.3,0,8.1
2010/1/8,7.6,0,8.3
2010/1/9,7.2,0,9
2010/1/10,7,0,9.1
2010/1/11,5.3,0,0.2
2010/1/12,3.9,6.5,0
2010/1/13,5.3,0,7
2010/1/14,3.8,0,9.4
2010/1/15,4.6,0,9.3
2010/1/16,3.8,0,9.4
2010/1/17,4.9,0,9.3
2010/1/18,5.3,0,7
2010/1/19,8.4,0,9.3
2010/1/20,11.6,0,7.3
2010/1/21,13,0,0.8
2010/1/22,7,0,5.9
2010/1/23,6.3,0,8
2010/1/24,7,0,9.6
2010/1/25,8.2,0,8.9
2010/1/26,6.7,0,9.7
2010/1/27,7.2,0,8.7
2010/1/28,12.2,0,0.9
2010/1/29,8.9,0,5.6
2010/1/30,8.9,0,7.9
2010/1/31,9.2,0,7.8
2010/2/1,5.9,31.5,0.8
2010/2/2,4.2,1.5,3.2
2010/2/3,3.7,0.5,6.9
2010/2/4,2.9,0,7.2
2010/2/5,4.9,0,9.8
2010/2/6,3.2,0,7.7
2010/2/7,4.9,0,9.9
2010/2/8,6.3,0,7.2
2010/2/9,11.8,0,7.8
2010/2/10,8.5,0,0
2010/2/11,4.5,10,0
2010/2/12,3.5,2,0
2010/2/13,2.2,0.5,0
2010/2/14,4.6,0,6.6
2010/2/15,5.3,17,0
2010/2/16,3.9,0.5,0
2010/2/17,3.1,0,0
2010/2/18,3.5,2,0
2010/2/19,5.7,0,5
2010/2/20,7,0,9.2
2010/2/21,6.1,0,5.9
2010/2/22,6.5,0,1.9
2010/2/23,9.7,0,7.6
2010/2/24,12,0,9.7
2010/2/25,13.9,0,8.1
2010/2/26,16.9,2.5,0
2010/2/27,10.9,30,0.1
2010/2/28,6.4,17,3.7
2010/3/1,9,0.5,1.6
2010/3/2,5.3,1,0
2010/3/3,8.4,0,7.4
2010/3/4,7.6,4.5,0
2010/3/5,12.5,6,9.7
2010/3/6,11.4,5,0
2010/3/7,6.2,7.5,0
2010/3/8,5.5,0,1.7
2010/3/9,3.5,23,0
2010/3/10,5.3,8,4.3
2010/3/11,8.6,0,11.1
2010/3/12,10.3,0,7.9
2010/3/13,16.1,0,8.9
2010/3/14,10.7,0,9.6
2010/3/15,13.7,0,1.1
2010/3/16,15.5,31.5,6.4
2010/3/17,9.8,0,5.1
2010/3/18,9.6,0,7.4
2010/3/19,8.7,0,5
2010/3/20,15.2,0,10
2010/3/21,15.3,4.5,7.9
2010/3/22,9.8,0,10.2
2010/3/23,10.9,2,1.8
2010/3/24,6.9,24.5,0
2010/3/25,5.3,22.5,0
2010/3/26,7.9,3,1.6
2010/3/27,8.1,0,6
2010/3/28,5.5,0,0
2010/3/29,4.4,0,1
2010/3/30,5.9,0,10.8
2010/3/31,9.1,0,3.3
2010/4/1,14.7,0,4.9
2010/4/2,15.2,0,0
2010/4/3,11.1,0,6.5
2010/4/4,8.8,0,1.2
2010/4/5,9.4,16,0
2010/4/6,14.8,0,8
2010/4/7,11.6,2.5,0
2010/4/8,8.9,0,11.4
2010/4/9,11.1,0,4.9
2010/4/10,15.6,0,6.9
2010/4/11,17.2,0,3.7
2010/4/12,8.6,30.5,0
2010/4/13,15.1,6.5,7.1
2010/4/14,13.9,0,5.5
2010/4/15,6.9,8,0
2010/4/16,5.2,9.5,0
2010/4/17,6.3,22,4.2
2010/4/18,12,0,10
2010/4/19,15.2,0,7.9
2010/4/20,15.6,6.5,0
2010/4/21,18.8,0.5,7.2
2010/4/22,9.1,22,0
2010/4/23,8.2,3,0
2010/4/24,11.2,0,5.8
2010/4/25,12.7,0,12.2
2010/4/26,14.4,0,10.9
2010/4/27,12.7,8,0.1
2010/4/28,14.1,79,0
2010/4/29,18.2,0,10.4
2010/4/30,15.2,0,11.1
2010/5/1,16.4,0,11.7
2010/5/2,17.9,0,11.4
2010/5/3,19,0,8.9
2010/5/4,20.6,0,7.2
2010/5/5,21.9,0,10.5
2010/5/6,22.4,0,9.9
2010/5/7,20.4,6,0
2010/5/8,19.7,0,10.1
2010/5/9,20.7,0,10.8
2010/5/10,19.1,0,1.3
2010/5/11,17.1,18.5,0
2010/5/12,16.4,6.5,4.9
2010/5/13,16.5,0,10.5
2010/5/14,15.4,0,5.6
2010/5/15,15.1,0,9.5
2010/5/16,17.3,0,8.9
2010/5/17,20.7,0,12.3
2010/5/18,21.6,0,10.2
2010/5/19,20.3,5.5,1.5
2010/5/20,20.2,24.5,0
2010/5/21,24.3,0,12.6
2010/5/22,23.4,0,6.8
2010/5/23,18.3,20,0
2010/5/24,18.1,24.5,0
2010/5/25,23.5,0,10.2
2010/5/26,17.6,2.5,0.9
2010/5/27,17.6,5.5,4.1
2010/5/28,18.5,0,9.1
2010/5/29,15.6,0,0
2010/5/30,14.5,0.5,0
2010/5/31,17.4,0,9.9
2010/6/1,17.6,0,12.9
2010/6/2,19.1,0,13.4
2010/6/3,20.9,0,11.8
2010/6/4,22.1,1,12.5
2010/6/5,20.2,0,6
2010/6/6,21.4,0,12.7
2010/6/7,23.1,0,6.9
2010/6/8,21.4,0,0
2010/6/9,20,5.5,0
2010/6/10,22.6,0,12.1
2010/6/11,22.6,0,6.1
2010/6/12,24.5,0,11.7
2010/6/13,23.2,0,3.2
2010/6/14,18.6,20.5,0
2010/6/15,23.1,2,8.5
2010/6/16,25.8,12.5,3
2010/6/17,26.7,0,10.1
2010/6/18,24.4,16.5,1.1
2010/6/19,25.2,9.5,2.8
2010/6/20,26.2,0,1.9
2010/6/21,25.9,0,4
2010/6/22,26.1,0,1.6
2010/6/23,24.2,20.5,0.8
2010/6/24,25.1,0,7.2
2010/6/25,26.2,0,8
2010/6/26,26.2,0,0
2010/6/27,26.6,3,0.7
2010/6/28,28,4,1.3
2010/6/29,26.4,4,0.1
2010/6/30,25.6,9,2.1
2010/7/1,27,0.5,1.1
2010/7/2,26.6,0,4.8
2010/7/3,26.2,1,0.6
2010/7/4,27.2,11,2.9
2010/7/5,26.8,3,2
2010/7/6,27.1,0.5,2.6
2010/7/7,25.4,6,0.2
2010/7/8,26.4,0,10
2010/7/9,25.5,24,0
2010/7/10,27.3,0,11.8
2010/7/11,26.3,5,1.3
2010/7/12,27.4,2.5,0.7
2010/7/13,23.8,2.5,0
2010/7/14,26.1,1.5,4.9
2010/7/15,28.4,0,3.6
2010/7/16,28.5,0,6
2010/7/17,28.3,0,7.4
2010/7/18,28.3,0,12.3
2010/7/19,29.8,0,12.6
2010/7/20,30.8,0,11.5
2010/7/21,31.5,0,11.4
2010/7/22,31.4,0,11.3
2010/7/23,30.8,1,10.1
2010/7/24,30.8,0,11.9
2010/7/25,29.5,0,8.7
2010/7/26,28.6,0.5,5.4
2010/7/27,29.8,0,11.6
2010/7/28,30,0,11.3
2010/7/29,26.3,6.5,0
2010/7/30,26.8,4.5,2.2
2010/7/31,29.2,0,2.5
2010/8/1,29.8,0,8.1
2010/8/2,29.4,0,1.8
2010/8/3,29.5,0,10.4
2010/8/4,29.8,0,9.3
2010/8/5,30,0,12.3
2010/8/6,29.6,0,7.7
2010/8/7,29.2,0,11.8
2010/8/8,29.2,0,3.4
2010/8/9,26.3,24.5,0.2
2010/8/10,27.7,2,1.9
2010/8/11,28.9,0,6.1
2010/8/12,28.7,0.5,4.3
2010/8/13,28.3,0,1.3
2010/8/14,29.4,0,0.3
2010/8/15,31.4,0,8.3
2010/8/16,32.2,0,8.9
2010/8/17,32.3,0,11
2010/8/18,30.4,0,4
2010/8/19,28.7,0,2.1
2010/8/20,27.8,0,1.1
2010/8/21,28.6,0,7
2010/8/22,29.9,0,11.4
2010/8/23,30.3,0,10.9
2010/8/24,29.7,0,9.7
2010/8/25,30.1,0,9
2010/8/26,29.9,0,9.8
2010/8/27,30,0,9.1
2010/8/28,30.1,0,11.3
2010/8/29,30.2,0,10.8
2010/8/30,30.5,0,7.9
2010/8/31,30.8,0,11.4
2010/9/1,30.4,0,8.2
2010/9/2,30.1,0,10.1
2010/9/3,30.5,0,11.6
2010/9/4,31.2,0,11.6
2010/9/5,30.1,0,5.5
2010/9/6,29.8,0,8.8
2010/9/7,31,0,8
2010/9/8,25.8,102,0
2010/9/9,24.6,1,4.8
2010/9/10,26,0,7.3
2010/9/11,28.4,0,11.1
2010/9/12,28.1,0,8
2010/9/13,28.7,1,4.3
2010/9/14,25.8,3,3.5
2010/9/15,23,1.5,0.7
2010/9/16,20.6,98,0
2010/9/17,24.5,0,7.6
2010/9/18,25.9,0,8.5
2010/9/19,26,0,7.2
2010/9/20,25.9,0.5,0.4
2010/9/21,27.8,0,9.6
2010/9/22,28.1,0,10.9
2010/9/23,19.8,59.5,0
2010/9/24,18.3,4.5,0
2010/9/25,17.8,17.5,5.3
2010/9/26,19.3,4.5,7.9
2010/9/27,16.3,54,0
2010/9/28,18.9,65,0.1
2010/9/29,22.4,0,4.3
2010/9/30,19.2,16,0
2010/10/1,20.9,0.5,3.2
2010/10/2,21.2,0,6.8
2010/10/3,20.9,0,6.4
2010/10/4,20.4,3,0
2010/10/5,22.6,0,4.4
2010/10/6,22,0,7.7
2010/10/7,21.1,0,3.8
2010/10/8,20.9,0,4.4
2010/10/9,17.5,30,0
2010/10/10,19.8,54,1.6
2010/10/11,23.4,0,10.7
2010/10/12,22.5,3,2.4
2010/10/13,23,2.5,3.1
2010/10/14,21.4,1,1.3
2010/10/15,21.3,0,1.1
2010/10/16,21.4,1.5,5.1
2010/10/17,20.9,0,0.5
2010/10/18,19.4,0,4.6
2010/10/19,18.6,0,0.1
2010/10/20,18.9,0,0
2010/10/21,18.4,3,0
2010/10/22,17.7,0,0
2010/10/23,16.4,0,7.3
2010/10/24,15.4,16,0.1
2010/10/25,17.9,2,0.7
2010/10/26,16.7,1.5,0
2010/10/27,12.6,0,6
2010/10/28,10,33.5,0
2010/10/29,13.9,0,0
2010/10/30,12.3,58.5,0
2010/10/31,15.9,1,0.1
2010/11/1,16.6,50.5,2.3
2010/11/2,16.6,0,6.6
2010/11/3,14.6,0,8.7
2010/11/4,12.1,0,3.1
2010/11/5,13.9,0,9.7
2010/11/6,15.4,0,9
2010/11/7,14.9,0,2.5
2010/11/8,16.1,0,7.4
2010/11/9,16.8,0,9.6
2010/11/10,14.3,0,9.6
2010/11/11,14.1,0,8.7
2010/11/12,15.3,0,7.1
2010/11/13,16.2,0,2.5
2010/11/14,15.6,0,0.1
2010/11/15,11.9,6.5,1.1
2010/11/16,10,0,8.1
2010/11/17,8.8,4,0
2010/11/18,10.9,0.5,5.3
2010/11/19,11.7,0,6.7
2010/11/20,13.3,0,5.7
2010/11/21,14.1,0,2.4
2010/11/22,14.1,3.5,0
2010/11/23,13.8,18.5,1.7
2010/11/24,11.3,0,5.9
2010/11/25,10.6,8,3.9
2010/11/26,12.8,3,0.5
2010/11/27,12.1,0,7.1
2010/11/28,13.1,0,8.5
2010/11/29,12.3,0,8.8
2010/11/30,12.2,0,6.3
2010/12/1,13.5,0,6.7
2010/12/2,13.9,0.5,4.8
2010/12/3,17,76,5.3
2010/12/4,12.4,0,9.3
2010/12/5,11.7,0,9.1
2010/12/6,12.9,0,6.1
2010/12/7,12.2,0,2.6
2010/12/8,9.2,7.5,6.8
2010/12/9,9.1,0,8.3
2010/12/10,10.6,0,9
2010/12/11,13.1,0,8.9
2010/12/12,11.9,0,7.6
2010/12/13,8.2,9.5,0
2010/12/14,11.2,8.5,0
2010/12/15,10.6,0,5.7
2010/12/16,6.1,0,0
2010/12/17,7,0,8.8
2010/12/18,8.2,0,9.1
2010/12/19,7.4,0,3.4
2010/12/20,10.7,0,6.9
2010/12/21,9.9,15,1.4
2010/12/22,13.3,28.5,5
2010/12/23,12.1,0,9.2
2010/12/24,8.2,0,7.5
2010/12/25,5.6,0,9
2010/12/26,6.7,0,8.2
2010/12/27,7.2,0,9
2010/12/28,7.2,0,8.6
2010/12/29,8.1,0,8.1
2010/12/30,4.9,0,1.8
2010/12/31,5.8,0,8.7
2011/1/1,6.6,0,7.9
2011/1/2,7,0,8.4
2011/1/3,5.9,0,5.2
2011/1/4,6.3,0,8.4
2011/1/5,7.3,0,7.4
2011/1/6,6.5,0,6.7
2011/1/7,4,0,9.2
2011/1/8,5.9,0,9.2
2011/1/9,6.1,0,9.1
2011/1/10,3.4,0,9.2
2011/1/11,3.8,0,6.7
2011/1/12,5.1,0,8.4
2011/1/13,4.4,0,8.6
2011/1/14,3.8,0,9.1
2011/1/15,4,0,1.1
2011/1/16,2.2,0,8.2
2011/1/17,5,0,8.7
2011/1/18,5.5,0,9.4
2011/1/19,6.3,0,9.3
2011/1/20,5.4,0,9.4
2011/1/21,5,0,9.3
2011/1/22,6,0,9.4
2011/1/23,5.7,0,6.3
2011/1/24,5.1,3.5,3.5
2011/1/25,5.9,0,8.6
2011/1/26,5.3,0,7.3
2011/1/27,5.5,0,8
2011/1/28,3.7,0,9.3
2011/1/29,4.2,0,7.8
2011/1/30,2.9,0,5.1
2011/1/31,2.9,0,9.7
2011/2/1,5.9,0,9.6
2011/2/2,5.8,0,2.2
2011/2/3,7.4,0,9.6
2011/2/4,8.8,0,9.6
2011/2/5,8.1,0,4.7
2011/2/6,8.3,0,3.8
2011/2/7,8.2,0,9.4
2011/2/8,5.8,1,0.5
2011/2/9,5,5.5,5.2
2011/2/10,6.5,0,5.5
2011/2/11,2,11,0
2011/2/12,2.1,2.5,0.1
2011/2/13,4.7,0,9.8
2011/2/14,3.3,21,0.4
2011/2/15,5.3,2.5,8
2011/2/16,6.8,0,9.8
2011/2/17,10,0,1.8
2011/2/18,9.1,76.5,5
2011/2/19,6.1,0,0.3
2011/2/20,7,1,0
2011/2/21,7.1,0,3.6
2011/2/22,6.5,0,10.3
2011/2/23,8.4,0,9.4
2011/2/24,11.4,0,0.5
2011/2/25,14.1,0,10.1
2011/2/26,7.2,0,10.6
2011/2/27,10.4,0,9.1
2011/2/28,4.9,30,0
2011/3/1,5.8,10.5,0
2011/3/2,6.8,0,1.5
2011/3/3,4.4,0,7.8
2011/3/4,4.6,0,9.4
2011/3/5,7.4,0,10.6
2011/3/6,9.3,0,6.8
2011/3/7,4.5,28,0
2011/3/8,6.9,0.5,3.5
2011/3/9,7.4,0,9.8
2011/3/10,6.2,0,9.2
2011/3/11,6.5,0,7.8
2011/3/12,8.2,0,9.9
2011/3/13,11.3,0,11
2011/3/14,14.1,0,7.6
2011/3/15,10.9,0,0.5
2011/3/16,7.5,0,7.9
2011/3/17,4.6,0,9.2
2011/3/18,6.1,0,11.3
2011/3/19,12.3,0,8.4
2011/3/20,13.7,0,6
2011/3/21,9.6,20,0
2011/3/22,6.9,13.5,0
2011/3/23,6.4,1.5,1.8
2011/3/24,5.4,0,4
2011/3/25,8.1,0,8.7
2011/3/26,7.4,0,11.7
2011/3/27,7.4,0,9
2011/3/28,8.6,0,11.4
2011/3/29,10.9,0,11.5
2011/3/30,11.6,0,10.6
2011/3/31,9.7,0,7.9
2011/4/1,11.2,0,11.8
2011/4/2,13.4,0,3.4
2011/4/3,7.9,0,0
2011/4/4,9,0,10.8
2011/4/5,10.1,0,12
2011/4/6,13.7,0,12
2011/4/7,15.7,0,5.3
2011/4/8,17.2,0,1.6
2011/4/9,16.1,0.5,0
2011/4/10,13.7,0,5.4
2011/4/11,13.7,12,5.9
2011/4/12,11.4,0.5,11.7
2011/4/13,14.3,0,11.9
2011/4/14,16.7,0,12
2011/4/15,18.4,0,8.1
2011/4/16,18.6,0,6.7
2011/4/17,13.6,0,9.3
2011/4/18,14.9,0,1.1
2011/4/19,10.8,23,2.9
2011/4/20,10.9,0,8.1
2011/4/21,12.4,0,2.1
2011/4/22,15.5,0,1.4
2011/4/23,16.5,54,0.3
2011/4/24,16.1,0,11.9
2011/4/25,15,0,8.3
2011/4/26,16.2,0,9.6
2011/4/27,20.1,2,8.2
2011/4/28,19.8,4,7.8
2011/4/29,15.1,0,7.6
2011/4/30,17.6,0,6.8
2011/5/1,18.4,2,0.5
2011/5/2,19.6,0,9.4
2011/5/3,15.8,6,0.1
2011/5/4,17.3,0,10.5
2011/5/5,15.1,0,0.1
2011/5/6,16,0,1.4
2011/5/7,17,1,0
2011/5/8,20.6,0,11.2
2011/5/9,19.7,0,7.9
2011/5/10,22.8,1,0.8
2011/5/11,15.2,35,0
2011/5/12,15.6,15.5,0
2011/5/13,19.8,0,2.9
2011/5/14,20.1,0,9.2
2011/5/15,20.5,0,11.2
2011/5/16,20.3,0,2.7
2011/5/17,18.2,3.5,0.5
2011/5/18,19.4,0,12.2
2011/5/19,20.9,0,12.7
2011/5/20,22,0,12.2
2011/5/21,22.8,0,11.8
2011/5/22,20.8,13.5,7.2
2011/5/23,15.6,7,0
2011/5/24,14.6,20.5,3.2
2011/5/25,18.7,0,11.3
2011/5/26,19.3,0,1.6
2011/5/27,18.8,1,0
2011/5/28,18.4,24,0
2011/5/29,18,69.5,0
2011/5/30,17.4,14,1.3
2011/5/31,15.2,0,4.4
2011/6/1,15.2,0,0.4
2011/6/2,16,10,0
2011/6/3,19.8,0,7.8
2011/6/4,22.1,0,10.9
2011/6/5,22.2,5.5,3.1
2011/6/6,22.9,0,11.4
2011/6/7,21.6,0,0.5
2011/6/8,19.7,3,1.6
2011/6/9,21.8,0,7.3
2011/6/10,22.8,0,0.5
2011/6/11,22.2,35.5,0.1
2011/6/12,23.2,0,0.3
2011/6/13,20.9,29.5,0
2011/6/14,21.7,0,0.6
2011/6/15,21.3,0,1.7
2011/6/16,21.1,3.5,0
2011/6/17,19.2,21.5,0
2011/6/18,20.3,4.5,0
2011/6/19,21.8,0,0.2
2011/6/20,23.9,0,1.7
2011/6/21,25.5,1,5.3
2011/6/22,27.2,0,12.4
2011/6/23,28.2,0,4
2011/6/24,29.1,0,7.1
2011/6/25,24.3,0,3.5
2011/6/26,21.3,0,0
2011/6/27,22.3,1.5,0
2011/6/28,27.3,0,7.9
2011/6/29,29.8,0,11.5
2011/6/30,28.7,1,5.3
2011/7/1,28.7,0,6
2011/7/2,26.5,0,2.2
2011/7/3,27.6,0,6.6
2011/7/4,29.6,0,6.9
2011/7/5,28,5.5,6.8
2011/7/6,28,0,10.4
2011/7/7,26.8,0,1.9
2011/7/8,28.6,0,0
2011/7/9,29.4,0,8.3
2011/7/10,29.3,0,13.3
2011/7/11,29.2,0,12.7
2011/7/12,28.7,0,10.5
2011/7/13,28.6,0,11.3
2011/7/14,28.9,0,11.3
2011/7/15,29.4,0,13.4
2011/7/16,29,0,13.1
2011/7/17,29.6,0,13.5
2011/7/18,30.1,0,5.3
2011/7/19,27.9,3.5,0
2011/7/20,25.9,6,0
2011/7/21,20.7,3,2.9
2011/7/22,21,0,5
2011/7/23,23.1,0,1.8
2011/7/24,26,0,7.9
2011/7/25,27.6,0,9.3
2011/7/26,27.5,0,1.9
2011/7/27,28.3,0,1.5
2011/7/28,26.4,2.5,0.1
2011/7/29,26.5,5,0.3
2011/7/30,25.7,29,2
2011/7/31,23.5,0,0
2011/8/1,24.5,0,0.3
2011/8/2,25.5,0,1.6
2011/8/3,26.1,15.5,0.9
2011/8/4,27.4,4.5,5.5
2011/8/5,27.8,4.5,3.4
2011/8/6,29,0,6.4
2011/8/7,28.9,20,7.2
2011/8/8,29.3,0,9.4
2011/8/9,30.2,0,9.9
2011/8/10,30.5,0,12.4
2011/8/11,31,0,8.4
2011/8/12,31.2,0,6.6
2011/8/13,30,0,9.7
2011/8/14,30,0,6.5
2011/8/15,30.3,0,9.4
2011/8/16,30.3,0,7.6
2011/8/17,30.7,0,8.7
2011/8/18,31.9,0,10.8
2011/8/19,25.3,57,0.3
2011/8/20,23.7,0,0
2011/8/21,20.6,11,0
2011/8/22,21.2,26,0
2011/8/23,25.9,0,4.8
2011/8/24,28.1,0,6
2011/8/25,27.2,2.5,0.4
2011/8/26,26.2,88.5,3.6
2011/8/27,24.3,0.5,0.1
2011/8/28,25.6,0,8.6
2011/8/29,26,0,7.4
2011/8/30,26.3,4.5,10.9
2011/8/31,26.4,9.5,2.1
2011/9/1,28.5,2,0.8
2011/9/2,28.5,27,4.1
2011/9/3,28,19,2.2
2011/9/4,27.2,2,3
2011/9/5,26.5,15,1.1
2011/9/6,24.5,14.5,1.9
2011/9/7,24.9,0,9.2
2011/9/8,25.7,0,10.4
2011/9/9,27.8,0,6
2011/9/10,28.4,0,9.9
2011/9/11,27.7,0,6.1
2011/9/12,28.3,0,10.7
2011/9/13,28.3,0,10.4
2011/9/14,28.3,0,8.3
2011/9/15,28.3,0,8.2
2011/9/16,28.2,5,6.3
2011/9/17,28,0,4.5
2011/9/18,28.5,0,11.3
2011/9/19,25.7,0.5,3.5
2011/9/20,19.9,21,0
2011/9/21,22.2,124,0
2011/9/22,23.4,5,5.7
2011/9/23,20.3,0,0.8
2011/9/24,20.5,0,8.8
2011/9/25,20.2,0,3.9
2011/9/26,18.9,0,0
2011/9/27,20.2,0,4.4
2011/9/28,20.5,0,8.8
2011/9/29,21.9,0,9.5
2011/9/30,24.6,0,6
2011/10/1,22.2,0,1.5
2011/10/2,18.5,0,0
2011/10/3,18.8,0,5.6
2011/10/4,18.5,0,9.9
2011/10/5,15.9,53.5,0
2011/10/6,20.4,3,5.8
2011/10/7,21.1,1.5,10.8
2011/10/8,19.7,0,6.3
2011/10/9,20.1,0,4.5
2011/10/10,20.4,6,5.9
2011/10/11,21.2,0,3.3
2011/10/12,20.5,0,6.7
2011/10/13,20.5,0,0.9
2011/10/14,21.2,4,5.5
2011/10/15,24.3,2,0.3
2011/10/16,24.8,8,6.2
2011/10/17,21.5,0,4.9
2011/10/18,19.1,0,3.5
2011/10/19,15.9,0,0
2011/10/20,17.7,0,1.3
2011/10/21,18.3,4,0
2011/10/22,19.5,37.5,0.1
2011/10/23,22.7,0,2.8
2011/10/24,20.7,0,0.9
2011/10/25,21.8,0,5.9
2011/10/26,16.7,0,9.2
2011/10/27,15.2,0,9.8
2011/10/28,15.5,0,9.4
2011/10/29,16,0,9.3
2011/10/30,16.9,0,3.3
2011/10/31,18.7,0,7.7
2011/11/1,17.7,0,9
2011/11/2,17.2,0,7.6
2011/11/3,18.4,0,0.7
2011/11/4,18.4,0,6.3
2011/11/5,18.9,1.5,2.6
2011/11/6,18.1,7,0
2011/11/7,18.6,0,7.2
2011/11/8,15.7,1,3.2
2011/11/9,14.3,0,1.9
2011/11/10,14.1,0,0.4
2011/11/11,12.4,19,0
2011/11/12,16.4,0,6.3
2011/11/13,17.8,0,8.6
2011/11/14,16.9,5.5,3.6
2011/11/15,14,0.5,1.8
2011/11/16,12.6,0,8.7
2011/11/17,14.5,0,9.4
2011/11/18,12.6,0,1.1
2011/11/19,16.3,78,0
2011/11/20,17.4,0,5.4
2011/11/21,12.6,0,5.9
2011/11/22,11.1,0,7.7
2011/11/23,12.4,0,8.6
2011/11/24,13.3,0,7.4
2011/11/25,11.4,0,9.4
2011/11/26,10.9,0,8.3
2011/11/27,11,0,5.6
2011/11/28,12.1,0,0
2011/11/29,14.4,0,1
2011/11/30,14.6,0,5.7
2011/12/1,7.8,4.5,0
2011/12/2,6.1,1.5,0
2011/12/3,11.1,35,0.5
2011/12/4,13.4,0,9.3
2011/12/5,11,0,9.2
2011/12/6,8,9.5,0
2011/12/7,9.8,0,8.1
2011/12/8,8,3.5,0
2011/12/9,5.5,4,2.5
2011/12/10,7.3,0,9.1
2011/12/11,8.1,0,9.1
2011/12/12,9.7,0,9
2011/12/13,9.7,0,8.9
2011/12/14,7.9,1.5,0
2011/12/15,10.4,0,8.9
2011/12/16,9,0,6.2
2011/12/17,6.1,0,9.1
2011/12/18,7,0,9
2011/12/19,6.5,0,8.4
2011/12/20,7,0,8.7
2011/12/21,5.8,0,5.2
2011/12/22,5.8,0,0.1
2011/12/23,6,0,3.4
2011/12/24,5.5,0,7.4
2011/12/25,5.2,0,6
2011/12/26,4.9,0,8.2
2011/12/27,5.2,0,9
2011/12/28,6.2,0,7.8
2011/12/29,6,0,8.9
2011/12/30,6.2,0,9.1
2011/12/31,5.6,0,6.5
2012/1/1,5.7,0,3.3
2012/1/2,6,0,4.6
2012/1/3,6.6,0,5.2
2012/1/4,5.4,0,7.7
2012/1/5,5.5,0,9.2
2012/1/6,6.3,0,5.9
2012/1/7,5.7,0,9.1
2012/1/8,5.8,0,8.2
2012/1/9,5.9,0,9
2012/1/10,6.7,0,7.6
2012/1/11,5.8,0,4.7
2012/1/12,3.8,0,6.1
2012/1/13,5.6,0,9.3
2012/1/14,5.1,0,6.2
2012/1/15,4.5,0,1.3
2012/1/16,4.5,0,0
2012/1/17,4.9,0,6.3
2012/1/18,5.4,0,8.3
2012/1/19,6.2,0,3.6
2012/1/20,2.8,9,0
2012/1/21,3.4,15,0
2012/1/22,5.3,3,0.6
2012/1/23,5,22.5,0
2012/1/24,3,0.5,5.6
2012/1/25,4.1,0,8.5
2012/1/26,3.2,0,9.7
2012/1/27,3.2,0,8.2
2012/1/28,2.6,0,7.4
2012/1/29,2.9,0,8.4
2012/1/30,3.7,0,9.4
2012/1/31,4.1,0,9.6
2012/2/1,6,0,6.2
2012/2/2,2.6,0,8.7
2012/2/3,2.8,0,9.5
2012/2/4,5.5,0,9.8
2012/2/5,6.1,0,3.5
2012/2/6,4.9,4,0
2012/2/7,7.7,28.5,0
2012/2/8,6.6,0,0.3
2012/2/9,4.7,0,9.5
2012/2/10,5.7,0,8.4
2012/2/11,5.4,0,7.2
2012/2/12,5,0,9.9
2012/2/13,5.8,0,2.7
2012/2/14,5.2,3.5,0
2012/2/15,7.6,0,0.6
2012/2/16,3.3,1,0
2012/2/17,3.7,2,5.9
2012/2/18,2.5,0.5,9.8
2012/2/19,3.3,0,8.7
2012/2/20,5.8,0,10
2012/2/21,8.1,0,10.1
2012/2/22,7.9,0,3.1
2012/2/23,7.8,17,2.7
2012/2/24,11.5,0,7.7
2012/2/25,5.8,19,0
2012/2/26,6,0,0.4
2012/2/27,4.7,0,5.7
2012/2/28,3.7,0,8.2
2012/2/29,2.3,18.5,0
2012/3/1,8.2,0,3.1
2012/3/2,7.3,10,0
2012/3/3,7.1,0.5,6.4
2012/3/4,5.5,0.5,0
2012/3/5,5.7,37,0
2012/3/6,11.4,3,4.2
2012/3/7,12.6,0,0.3
2012/3/8,9.6,0,0
2012/3/9,7.3,26.5,0
2012/3/10,5.3,19.5,0.1
2012/3/11,7.4,0,4.9
2012/3/12,7.2,0,7.4
2012/3/13,6.8,0,10.6
2012/3/14,7.2,0,9.3
2012/3/15,7.9,0,11.2
2012/3/16,7.7,0,9.2
2012/3/17,6.8,24,0
2012/3/18,9.6,1,0
2012/3/19,9.1,0,6.5
2012/3/20,8.2,0,8.7
2012/3/21,8.1,0,10.2
2012/3/22,10.1,0,3.5
2012/3/23,9.9,11,0
2012/3/24,8.4,3.5,1.8
2012/3/25,9.1,0,8.1
2012/3/26,8.2,0,7.2
2012/3/27,9.6,0,11.9
2012/3/28,11.2,0,8.8
2012/3/29,11.7,0,11.9
2012/3/30,15.3,0,3.7
2012/3/31,14.1,8,0.7
2012/4/1,10,0,9.3
2012/4/2,10.8,0,11
2012/4/3,14,21.5,2
2012/4/4,11.9,0,10.7
2012/4/5,14.8,0,10.2
2012/4/6,10.7,0.5,8
2012/4/7,8.8,0,7.9
2012/4/8,9.5,0,9.9
2012/4/9,16.6,0,11
2012/4/10,16.4,0,9.1
2012/4/11,15.7,16,0
2012/4/12,17.4,0,11.7
2012/4/13,17.2,4,5.6
2012/4/14,9.9,32,0
2012/4/15,11.8,0,8.9
2012/4/16,13.1,0,5.1
2012/4/17,14.9,1.5,3
2012/4/18,15,0,7.6
2012/4/19,14.2,0,1
2012/4/20,13.3,0,0.3
2012/4/21,11.8,0,0
2012/4/22,11.3,5.5,0
2012/4/23,13.4,9,0
2012/4/24,18.3,1,8.2
2012/4/25,18.4,0,4.1
2012/4/26,18.3,1,0.1
2012/4/27,16.6,26.5,0
2012/4/28,18.3,0,7.7
2012/4/29,20.6,0,9.7
2012/4/30,20.7,0,0.3
2012/5/1,20.5,0.5,2.3
2012/5/2,18.8,37,0
2012/5/3,17.9,121.5,0
2012/5/4,18.6,5,1.2
2012/5/5,21.2,0,12.3
2012/5/6,19.7,1,7.6
2012/5/7,18.5,0,11.3
2012/5/8,20.5,0,7.1
2012/5/9,19.3,7.5,0
2012/5/10,17.1,3.5,7.6
2012/5/11,17.4,0,11.9
2012/5/12,16.3,0,8.4
2012/5/13,17,0,10.8
2012/5/14,19.7,0,11.8
2012/5/15,18.7,11.5,0
2012/5/16,22,0,8.2
2012/5/17,21.6,0,3.6
2012/5/18,18.8,4.5,7.3
2012/5/19,20.3,0,11.6
2012/5/20,21.3,0,5.3
2012/5/21,20.2,0,6.9
2012/5/22,14.6,33,0
2012/5/23,18.7,0,8.3
2012/5/24,22,0,9.3
2012/5/25,20.4,0,0.1
2012/5/26,21,0,5.9
2012/5/27,22.5,0,12.5
2012/5/28,21.4,5.5,7.9
2012/5/29,20.7,0.5,6
2012/5/30,20.1,0,6
2012/5/31,20.3,0,4.2
2012/6/1,21.3,1.5,2.6
2012/6/2,21.6,0,7.9
2012/6/3,20.3,0.5,2.8
2012/6/4,22.1,0,9.9
2012/6/5,21.7,0,0
2012/6/6,19.4,4,0
2012/6/7,21.1,0,9
2012/6/8,23.5,1,9.5
2012/6/9,19,29.5,0
2012/6/10,21.9,1,5.6
2012/6/11,20,1,0.3
2012/6/12,16.9,11.5,0
2012/6/13,17.4,1,1.2
2012/6/14,18.6,0,8.5
2012/6/15,20.3,0,7.3
2012/6/16,20.2,6.5,0
2012/6/17,23.3,7,3.4
2012/6/18,24.5,0,5.1
2012/6/19,23.9,72.5,0
2012/6/20,26.9,0,4.9
2012/6/21,23.7,0,0.2
2012/6/22,21.1,48,0.1
2012/6/23,22.2,0,1.8
2012/6/24,22.6,0,3.9
2012/6/25,18.4,0,0.4
2012/6/26,19.5,0,12.9
2012/6/27,20.6,0,11.2
2012/6/28,22.5,0,3.2
2012/6/29,23.4,0,5.6
2012/6/30,23.3,0,8
2012/7/1,21.9,7.5,0.6
2012/7/2,22.8,8,3.9
2012/7/3,23.5,9,1.3
2012/7/4,24.8,3,9.9
2012/7/5,26.7,0,1.6
2012/7/6,25.3,8,0.3
2012/7/7,23,23,0
2012/7/8,22.6,6,4.3
2012/7/9,24.9,0,12.1
2012/7/10,26.5,0,11.7
2012/7/11,27,0,11.9
2012/7/12,26.7,2,0
2012/7/13,27.4,11.5,3
2012/7/14,28.6,41,5.5
2012/7/15,29.1,0,7.8
2012/7/16,29.5,0,9.4
2012/7/17,29.9,0,10.1
2012/7/18,28.5,0,7.7
2012/7/19,28.2,0,8.1
2012/7/20,20.5,7,0
2012/7/21,19.6,4,0
2012/7/22,20.8,0,0
2012/7/23,25.1,0,3.6
2012/7/24,27.8,0,1.5
2012/7/25,29.5,0,6.8
2012/7/26,30.8,0,8.9
2012/7/27,30,0,9.3
2012/7/28,30.1,0,9.5
2012/7/29,29.5,0,9.8
2012/7/30,29.6,0,12.2
2012/7/31,29,0,10.5
2012/8/1,29.4,0,5.9
2012/8/2,30.2,0,9.6
2012/8/3,29.8,0,8.1
2012/8/4,28.6,0,2.6
2012/8/5,29.8,0,10.3
2012/8/6,27.4,15.5,1.6
2012/8/7,28.7,0,7.6
2012/8/8,25.8,0,6.6
2012/8/9,25.9,0,7.9
2012/8/10,27.1,0,5.9
2012/8/11,28.8,0,2.2
2012/8/12,27.6,0.5,4.2
2012/8/13,29.8,0,9.4
2012/8/14,28.6,1,2.2
2012/8/15,29.1,0,3.1
2012/8/16,30.1,0,7
2012/8/17,30.5,0,8.3
2012/8/18,28,8,2.3
2012/8/19,29,0,11.5
2012/8/20,29.1,0,9.4
2012/8/21,29.7,0,11.8
2012/8/22,29.6,0,11
2012/8/23,30.1,0,11.7
2012/8/24,30,0,10.6
2012/8/25,29.9,0,9.3
2012/8/26,30.1,0,10.2
2012/8/27,30,0,10.9
2012/8/28,29.6,0,9.6
2012/8/29,29.1,0,7.4
2012/8/30,30.2,0,9.9
2012/8/31,29.6,0,7.9
2012/9/1,27.9,22.5,4.3
2012/9/2,25.8,17.5,2.3
2012/9/3,26.9,0.5,2.8
2012/9/4,27.3,4.5,4.6
2012/9/5,28.6,0,8.1
2012/9/6,27.3,2,3.5
2012/9/7,27.6,0,6.4
2012/9/8,28.1,0,6
2012/9/9,28.8,0,10.2
2012/9/10,28.9,0,9.7
2012/9/11,28.7,0,9.9
2012/9/12,28.1,0,9.4
2012/9/13,28.8,0,11.4
2012/9/14,28.8,0,9.2
2012/9/15,28.3,0,8.5
2012/9/16,28.3,3.5,4.6
2012/9/17,27.9,8.5,4.8
2012/9/18,28,5.5,4.6
2012/9/19,26.7,36,0.4
2012/9/20,27.6,0,9.5
2012/9/21,24.7,16,2
2012/9/22,22.3,10.5,1.3
2012/9/23,20.3,45.5,0
2012/9/24,23.2,21.5,7.5
2012/9/25,20.4,7.5,0
2012/9/26,21.8,0,7
2012/9/27,21.2,0,4.1
2012/9/28,22.3,0,0.1
2012/9/29,24.9,0,6
2012/9/30,25.7,13,6.2
2012/10/1,26.9,0,11.1
2012/10/2,23.7,0,1.7
2012/10/3,20.7,13,0
2012/10/4,22.5,30,6.1
2012/10/5,23.8,0,7.4
2012/10/6,24,8,4.2
2012/10/7,19.1,13.5,2.1
2012/10/8,19.8,0,6
2012/10/9,19.1,0,2.5
2012/10/10,19.2,0.5,4
2012/10/11,20.8,0,4.8
2012/10/12,20.9,0,6.1
2012/10/13,20.7,0,9.4
2012/10/14,17.9,0,0.2
2012/10/15,21,0,6.8
2012/10/16,19.1,0,9.6
2012/10/17,17.7,19.5,2.8
2012/10/18,17.8,21.5,0
2012/10/19,16.3,13.5,8.2
2012/10/20,18.1,0,7.2
2012/10/21,19.1,0,9.9
2012/10/22,19.8,0,5.5
2012/10/23,20.5,6,1.2
2012/10/24,17.2,0,9.7
2012/10/25,16.6,0,0.8
2012/10/26,18.3,0,9
2012/10/27,18,0,5.1
2012/10/28,15.4,20.5,0.5
2012/10/29,17.7,8.5,9.2
2012/10/30,15.5,0,1.5
2012/10/31,14.9,0,4
2012/11/1,15.3,0,9.4
2012/11/2,14.9,0,9
2012/11/3,14,0,4.2
2012/11/4,14.9,0,9.6
2012/11/5,13.5,0,0.1
2012/11/6,14,41,0
2012/11/7,16.5,0,7.9
2012/11/8,15.6,0,7.1
2012/11/9,16.5,0,3.5
2012/11/10,15.7,0,9.7
2012/11/11,13.2,14,0.2
2012/11/12,15.3,3,2.9
2012/11/13,14.9,0,3.5
2012/11/14,13.6,0,8.4
2012/11/15,11.7,0,8.6
2012/11/16,13.3,0,9.6
2012/11/17,13.7,60.5,0
2012/11/18,12.7,0,9.5
2012/11/19,8.6,0,0.4
2012/11/20,11.8,0,9.2
2012/11/21,11.4,0,9.2
2012/11/22,10.9,0,3
2012/11/23,10.3,5,0
2012/11/24,10.5,0.5,3.9
2012/11/25,9.4,0,8.8
2012/11/26,8.8,26,0
2012/11/27,11,0,9.1
2012/11/28,7.2,0.5,0.3
2012/11/29,10.1,3.5,5.9
2012/11/30,10.5,0,0.3
2012/12/1,7.3,0,2.5
2012/12/2,5.6,2.5,4.4
2012/12/3,6.7,1,0
2012/12/4,9.9,1.5,0.3
2012/12/5,9.8,0,7.6
2012/12/6,11.9,0,8.6
2012/12/7,8.4,0,8.5
2012/12/8,9.3,0,8.8
2012/12/9,6.6,0,8.5
2012/12/10,5.4,0,8.2
2012/12/11,6.7,0,8.7
2012/12/12,7.2,0,8.2
2012/12/13,7.1,0,9
2012/12/14,7.3,0,7.4
2012/12/15,7.2,2,0
2012/12/16,12,0.5,8.9
2012/12/17,7.9,1.5,0
2012/12/18,10.4,0,5.4
2012/12/19,6.1,0,6.4
2012/12/20,6.6,0,7.7
2012/12/21,6.8,0,3.9
2012/12/22,6.8,16.5,1.2
2012/12/23,7.1,0,0.6
2012/12/24,5.1,0,8.6
2012/12/25,4.5,0,9
2012/12/26,4.4,0,8.9
2012/12/27,3.9,0,8.8
2012/12/28,4.2,2.5,0
2012/12/29,7.5,1,6.3
2012/12/30,7.2,40,0
2012/12/31,8.8,0,0.5
2013/1/1,6.5,0,8.9
2013/1/2,10,0,8.8
2013/1/3,5.6,0,6.1
2013/1/4,3.2,0,9
2013/1/5,2.8,0,0.9
2013/1/6,4.7,0,5.3
2013/1/7,5.5,0,4.4
2013/1/8,6.6,0,7.6
2013/1/9,6.7,0,6
2013/1/10,5.5,0,7.3
2013/1/11,5.1,0,9
2013/1/12,4.6,0,6.2
2013/1/13,7.6,0,8.4